sat.trackr.live / text

‹ back to catalog

STARLINK-34365

NORAD 64671 · 2025-139H

PAYLOAD ACTIVE UNKNOWN

§ Identity

Operator
Country
US
Launch date
2025-06-28
Launch site
AFETR
Launch vehicle
Mass (kg)
RCS (m²)

Purposes: comms

External: N2YO · Heavens-Above · Gunter

§ Orbital elements

Epoch: 2026-05-25T02:43:38.710272Z

Period
93.85 min
Inclination
53.1577°
Eccentricity
0.0001040
Mean motion
15.34409038 rev/d
Perigee alt
462.0 km
Apogee alt
463.4 km
Semi-major
6,840.8 km
B*
5.9787e-4
RAAN
131.4444°
Arg perigee
55.3498°
Mean anomaly
304.7602°
Rev number
5,205

§ Raw data

STARLINK-343651 64671U 25139H   26145.11364248  .00019883  00000+0  59787-3 0  99982 64671  53.1577 131.4444 0001040  55.3498 304.7602 15.34409038 52055

JSON: /api/v1/satellites/64671 · /tle

For live sub-satellite position, see the globe view (requires WebGL).

§ Visibility from observer

Set your observer location to see the next 7 days of passes ≥ 10°. The values pass through the URL so the page stays shareable.

No JS? Fill the form by hand. The geolocation button needs JavaScript.